MDT,Max TemperatureF,Mean TemperatureF,Min TemperatureF,Max Dew PointF,MeanDew PointF,Min DewpointF,Max Humidity, Mean Humidity, Min Humidity, Max Sea Level PressureIn, Mean Sea Level PressureIn, Min Sea Level PressureIn, Max VisibilityMiles, Mean VisibilityMiles, Min VisibilityMiles, Max Wind SpeedMPH, Mean Wind SpeedMPH, Max Gust SpeedMPH,PrecipitationIn, CloudCover, Events, WindDirDegrees
2012-10-1,81,66,50,40,35,29,59,34,16,30.29,30.21,30.15,10,10,10,13,5,,0.00,0,,223
2012-10-2,83,66,49,40,36,32,64,35,16,30.21,30.12,30.01,10,10,10,13,6,,0.00,0,,149
2012-10-3,89,68,46,34,27,21,56,25,9,30.14,30.07,30.02,10,10,10,23,5,26,0.00,0,,310
2012-10-4,87,71,55,32,28,22,33,20,12,30.26,30.18,30.09,10,10,10,15,7,28,0.00,0,,235
2012-10-5,84,70,56,36,27,22,37,22,11,30.21,30.12,30.02,10,10,10,18,8,25,0.00,0,,265
2012-10-6,79,64,50,38,33,24,63,34,14,30.12,30.05,29.96,10,10,10,17,8,26,0.00,0,,184
2012-10-7,68,54,39,38,34,31,79,50,25,30.19,30.12,30.05,10,10,10,13,6,18,0.00,0,,120
2012-10-8,79,58,38,37,26,19,61,33,11,30.20,30.10,29.99,10,10,10,15,4,21,0.00,0,,301
2012-10-9,82,70,57,35,30,23,39,25,14,30.15,30.09,30.03,10,10,10,17,8,18,0.00,0,,263
2012-10-10,79,62,46,34,30,25,57,31,17,30.25,30.14,30.05,10,10,10,13,4,,0.00,0,,165
2012-10-11,81,66,50,48,38,30,66,38,21,30.18,30.13,30.08,10,10,10,22,5,31,0.00,1,Rain,174
2012-10-12,79,66,52,51,40,19,75,46,15,30.15,30.08,29.95,10,10,10,33,11,41,0.00,2,Rain-Thunderstorm,197
2012-10-13,69,56,43,33,30,26,59,38,20,30.24,30.15,30.10,10,10,10,20,8,29,0.00,0,,305
2012-10-14,73,56,39,36,32,24,76,43,17,30.37,30.29,30.23,10,10,10,8,4,,0.00,0,,325
2012-10-15,76,58,39,32,28,24,58,34,17,30.29,30.17,30.06,10,10,10,9,4,,0.00,0,,113
2012-10-16,81,62,43,30,25,18,51,27,12,30.09,29.98,29.86,10,10,10,14,5,,0.00,0,,283
2012-10-17,80,68,55,36,22,2,34,19,8,30.08,29.98,29.91,10,10,10,24,11,30,0.00,0,,309
2012-10-18,77,60,42,16,8,-1,17,13,10,30.18,30.12,30.05,10,10,10,13,7,9,0.00,0,,14
2012-10-19,76,58,39,23,16,10,32,21,12,30.19,30.11,30.01,10,10,7,9,5,,0.00,0,,356
2012-10-20,80,59,38,28,18,14,36,22,11,30.07,29.98,29.87,10,10,10,12,5,,0.00,0,,299
2012-10-21,79,62,46,38,32,24,59,33,17,30.06,29.98,29.91,10,10,10,15,7,22,0.00,1,,228
2012-10-22,77,62,46,36,32,29,53,32,19,30.09,30.01,29.95,10,10,10,13,6,18,0.00,0,,182
2012-10-23,80,62,44,32,29,24,53,28,14,30.09,30.00,29.93,10,10,10,21,6,23,0.00,0,,187
2012-10-24,82,66,51,31,26,22,36,24,11,30.01,29.93,29.79,10,10,10,25,6,31,0.00,0,,236
2012-10-25,63,50,38,21,16,10,43,23,15,30.18,30.10,29.98,10,10,7,17,8,22,0.00,0,,330
2012-10-26,56,45,34,25,16,7,62,32,14,30.35,30.26,30.17,10,10,10,15,7,23,0.00,0,,42
2012-10-27,59,44,28,24,20,14,68,41,22,30.28,30.20,30.11,10,10,7,10,4,,0.00,0,,83
2012-10-28,68,50,32,18,15,10,44,28,14,30.26,30.19,30.13,10,10,7,9,4,,0.00,0,,355
2012-10-29,73,52,32,19,16,13,45,25,12,30.29,30.22,30.15,10,10,10,8,3,,0.00,0,,351
2012-10-30,75,56,37,21,16,11,35,22,13,30.25,30.19,30.12,10,10,10,12,5,,0.00,0,,340
2012-10-31,73,54,35,21,17,12,41,25,14,30.25,30.19,30.12,10,10,5,10,5,,0.00,0,,355